Terminal Aerodrome Forecast
Issued by NWS Billings, MT

Home | Current Version | Previous Version | Graphics & Text | Print | Product List | Glossary On
Versions: 1 2 3 4 5 6 7 8 9 10 11 12 13 14 15 16 17 18 19 20 21 22 23 24 25 26 27
000
FTUS45 KBYZ 051136
TAFMLS
TAF
KMLS 051136Z 0512/0612 16010KT P6SM OVC100
     FM051700 27016G21KT P6SM BKN100
     FM052200 27018G30KT P6SM BKN120
     FM060100 16010KT P6SM BKN120
      AMD NOT SKED=

USA.gov is the U.S. government's official web portal to all federal, state and local government web resources and services.